Regional Weather Roundup
Issued by NWS

Home | Current Version | Previous Version | Text Only | Print | Product List | Glossary On
Versions: 1 2 3 4 5 6 7 8 9 10 11 12 13 14 15 16 17 18 19 20 21 22 23 24 25 26 27
000
ASUS46 KSEW 241610
RWRWA

WASHINGTON REGIONAL WEATHER ROUNDUP
NATIONAL WEATHER SERVICE SEATTLE WA
900 AM PDT FRI OCT 24 2014

NOTE:"FAIR" INDICATES FEW OR NO CLOUDS BELOW 12,000 FEET WITH NO
SIGNIFICANT WEATHER AND/OR OBSTRUCTIONS TO VISIBILITY.

WAZ505-507>509-241700-
SEATTLE, TACOMA, EVERETT, AND VICINITY

CITY           SKY/WX    TMP DP  RH WIND       PRES   REMARKS
EVERETT        CLOUDY    48  43  82 E8        30.05R
BOEING FIELD   CLOUDY    51  46  83 CALM      30.05S
RENTON         CLOUDY    48  48 100 CALM      30.04F
SEATAC AIRPORT CLOUDY    49  44  83 SE5       30.05S
JBLM-MCCHORD   CLOUDY    44  43  99 CALM      30.04S
PUYALLUP       NOT AVBL
JBLM-FT LEWIS  CLOUDY    46  45  99 NE2       30.04R
TACOMA NARROWS CLOUDY    48  46  93 NE3       30.05R
$$

WAZ001-503-506-510-514-515-241700-
NORTH INTERIOR

CITY           SKY/WX    TMP DP  RH WIND       PRES   REMARKS
BELLINGHAM     PTSUNNY   47  43  86 N5        30.06S
FRIDAY HARBOR  PTSUNNY   50  45  83 E3        30.06R
EASTSOUND      PTSUNNY   48  46  93 CALM      30.04S
PORT ANGELES     N/A    N/A N/A N/A MISG      30.04R
NAS WHIDBEY    PTSUNNY   51  44  77 E7        30.05S
BURLINGTON     MOSUNNY  N/A N/A N/A NE5       30.06S
$$

WAZ020-022-039-040-504-511-512-241700-
SOUTHWEST INTERIOR

CITY           SKY/WX    TMP DP  RH WIND       PRES   REMARKS
SHELTON        CLOUDY    48  47  96 CALM      30.02S
OLYMPIA        FOG       45  45 100 CALM      30.04R VSB<1/4
CHEHALIS       FOG       46  46 100 CALM      30.03S VSB<1/4
KELSO          CLOUDY    48  45  87 CALM      30.04F
VANCOUVER      CLOUDY    51  49  92 CALM      30.00F
SCAPPOOSE, OR  CLOUDY    50  49  96 CALM      30.01S FOG
PORTLAND, OR   CLOUDY    52  50  93 CALM      30.00F
$$

WAZ021-516-517-241700-
WASHINGTON COAST

CITY           SKY/WX    TMP DP  RH WIND       PRES   REMARKS
FORKS          PTCLDY    45  44  97 E6        30.00R
HOQUIAM        CLOUDY    48  47  96 NE10      30.01S FOG
ASTORIA, OR    CLOUDY    50  48  93 E5        29.98S
$$

WAZ019-023-024-040-518-519-241700-
CASCADE MOUNTAINS AND COLUMBIA GORGE

CITY           SKY/WX    TMP DP  RH WIND       PRES   REMARKS
STAMPEDE PASS  NOT AVBL
TROUTDALE, OR  CLOUDY    53  49  86 E14       29.98F
THE DALLES, OR CLOUDY    48  45  89 CALM      30.08R
$$

WAZ026-027-041>044-520-521-241700-
EAST SLOPES

CITY           SKY/WX    TMP DP  RH WIND       PRES   REMARKS
OMAK           CLOUDY    41  35  79 N5        30.09R
WENATCHEE      CLOUDY    45  38  76 NW7       30.07R
ELLENSBURG     CLOUDY    42  38  85 NE3       30.07R
YAKIMA         CLOUDY    42  38  85 W5        30.08S
$$

WAZ028-034-035-241700-
COLUMBIA BASIN

CITY           SKY/WX    TMP DP  RH WIND       PRES   REMARKS
EPHRATA        CLOUDY    44  40  85 N6        30.07R
MOSES LAKE     CLOUDY    43  40  89 N3        30.08R
PASCO          CLOUDY    48  47  96 N5        30.08R
HERMISTON, OR  CLOUDY    48  46  93 CALM      30.07S
$$

WAZ036>038-241700-
NORTHEAST WASHINGTON

CITY           SKY/WX    TMP DP  RH WIND       PRES   REMARKS
SPOKANE GEIGER CLOUDY    43  40  89 CALM      30.09R
SPOKANE FELTS  CLOUDY    46  41  82 CALM      30.11R
FAIRCHILD AFB  CLOUDY    42  40  95 SE2       30.09R
COEURDALENE,ID CLOUDY    45  39  81 CALM      30.09R
DEER PARK      CLOUDY    42  40  92 CALM      30.10R
$$

WAZ029>033-241700-
SOUTHEAST WASHINGTON

CITY           SKY/WX    TMP DP  RH WIND       PRES   REMARKS
PULLMAN        CLOUDY    47  42  83 E10       30.10S
LEWISTON, ID   CLOUDY    50  47  89 CALM      30.10R
WALLA WALLA    CLOUDY    53  47  79 SE3       30.07R
PENDLETON, OR  CLOUDY    48  46  93 SE7       30.06S
$$



USA.gov is the U.S. government's official web portal to all federal, state and local government web resources and services.